Вернуться в каталог

HJ-2F

АктивенНаукаSSO
NORAD 57519·PAYLOAD·🇨🇳 China

Запущен Aug 8, 2023 с Taiyuan Satellite Launch Center

Loading…

Ближайшие Пролёты (ближайшие 24 часа)

TLE

СвежийSource: Space-Track

Эпоха: Sep 14, 2026, 15:25 UTC

1 57519U 23116A   26257.64247043  .00005035  00000-0  23653-3 0  9997
2 57519  97.3889 261.3272 0006774 201.4625 158.6327 15.20037225172368

Отслеживайте HJ-2F в реальном времени с AllMySat

Download on the App Store